#timestamp,LO_Frequency,Hit,StdDev 
1512028815.3,286046983.6,N
1512028835.2,286046983.4,N
1512028855.9,286046983.2,N
1512028875.7,286046984.6,N
1512028895.6,286046985.0,N
1512028915.4,286046981.7,N
1512028935.2,286046978.2,N
1512028955.1,286046976.4,N
1512028956.0,286046976.4,N
1512028975.8,286046976.2,N
1512028995.6,286046975.1,N
1512029015.5,286046973.4,N
1512029035.3,286046976.2,N
1512029055.1,286046977.4,N
1512029075.8,286046978.4,N
1512029095.7,286046977.1,Y
1512029115.5,286046994.6,P
1512029135.3,286046994.7,N
1512029155.2,286046988.9,N
1512029175.0,286046987.4,Y
1512029175.9,286046987.4,P
1512029195.8,286046996.3,N
1512029215.6,286046993.6,N
1512029235.4,286046991.7,N
1512029255.2,286046997.6,N
1512029275.1,286046991.7,N
1512029276.0,286046991.7,N
1512029295.8,286046997.7,N
1512029315.6,286046993.4,N
1512029335.5,286046995.0,N
1512029355.3,286046997.5,N
1512029375.1,286046994.0,N
1512029395.9,286046990.6,Y
1512029415.7,286046997.0,P
1512029435.5,286046999.6,N
1512029455.4,286046996.5,N
1512029475.2,286046999.4,N
1512029495.0,286047000.6,N
1512029495.9,286047000.6,N
1512029515.8,286046998.8,N
1512029535.6,286047000.8,N
1512029555.4,286046998.1,N
1512029575.3,286046996.6,N
1512029595.1,286046996.3,N
1512029596.0,286046996.3,N
1512029615.8,286046995.7,N
1512029635.6,286046997.4,N
1512029655.5,286046998.6,N
1512029675.3,286046997.3,N
1512029695.1,286046994.9,N
1512029715.9,286046995.0,N
1512029735.7,286046999.1,N
1512029755.5,286047005.8,N
1512029775.4,286047004.5,N
1512029795.2,286047005.0,N
1512029815.0,286047005.9,N
1512029815.9,286047005.9,N
1512029835.8,286047004.8,N
1512029855.6,286047003.1,N
1512029875.4,286047005.3,N
1512029895.3,286047005.5,N
1512029915.1,286047006.0,N
1512029916.0,286047006.0,N
1512029935.8,286047002.9,N
1512029955.6,286047003.1,N
1512029975.5,286047003.3,N
1512029995.3,286047004.1,N
1512030015.1,286047002.6,N
1512030035.9,286047005.9,N
1512030055.7,286047003.4,N
1512030075.5,286047003.0,N
1512030095.4,286047003.9,N
1512030115.2,286047005.8,N
1512030135.0,286047007.4,N
1512030135.9,286047007.4,N
1512030155.8,286047006.6,N
1512030175.6,286047006.8,N
1512030195.4,286047007.4,N
1512030215.3,286047005.2,N
1512030235.1,286047004.5,N
1512030236.0,286047004.5,N
1512030255.8,286047003.5,N
1512030275.7,286047006.8,Y
1512030295.5,286047002.1,P
1512030315.3,286047002.0,N
1512030335.2,286047002.8,N
1512030355.9,286047000.7,N
1512030375.7,286047001.2,N
1512030395.6,286046996.8,N
1512030415.4,286046996.8,N
1512030435.2,286047002.8,N
1512030455.0,286047001.3,N
1512030455.9,286047001.3,N
1512030475.8,286047005.4,N
1512030495.6,286047004.0,N
1512030515.4,286047002.8,N
1512030535.3,286047000.6,N
1512030555.1,286047002.0,N
1512030575.8,286047006.0,N
1512030595.7,286047005.0,N
1512030615.5,286047004.5,N
1512030635.3,286047009.1,Y
1512030655.2,286047003.0,P
1512030675.0,286047003.9,P
1512030675.9,286047003.9,P
1512030695.7,286046998.4,N
1512030715.6,286047003.5,N
1512030735.4,286047004.5,N
1512030755.2,286047009.6,Y
1512030775.1,286047008.9,P
1512030776.0,286047008.9,N
1512030795.8,286047008.4,N
1512030815.6,286047007.6,N
1512030835.5,286047005.4,N
1512030855.3,286047002.9,N
1512030875.1,286047004.4,N
1512030895.9,286046997.5,N
1512030915.7,286046996.5,N
1512030935.5,286046996.8,N
1512030955.3,286046993.6,N
1512030975.2,286046992.1,N
1512030995.0,286046990.7,N
1512030995.9,286046990.7,N
1512031015.7,286046990.4,N
1512031035.6,286046990.8,N
1512031055.4,286046990.5,N
1512031075.2,286046986.9,N
1512031095.1,286046986.4,N
1512031096.0,286046986.4,N
1512031115.8,286046982.1,N
1512031135.6,286046984.8,N
1512031155.5,286046981.0,N
1512031175.3,286046980.8,N
1512031195.1,286046979.6,N
1512031215.9,286046980.6,N
1512031235.7,286046980.5,N
1512031255.5,286046978.0,N
1512031275.4,286046975.9,N
1512031295.2,286046977.9,N
1512031315.0,286046978.2,N
1512031315.9,286046978.2,N
1512031335.7,286046977.6,N
1512031355.6,286046976.7,N
1512031375.4,286046974.9,N
1512031395.2,286046973.9,Y
1512031415.1,286046982.7,P
1512031416.0,286046982.7,P
1512031435.8,286046981.7,P
1512031455.7,286046979.3,Y
1512031475.5,286046997.2,P
1512031495.3,286046999.1,N
1512031515.1,286046999.7,N
1512031535.9,286047004.0,N
1512031555.7,286047003.5,N
1512031575.5,286047006.4,N
1512031595.4,286047009.9,N
1512031615.2,286047011.1,N
1512031635.0,286047011.2,N
1512031635.9,286047011.2,N
1512031655.8,286047011.2,N
1512031675.6,286047015.5,N
1512031695.4,286047014.3,N
1512031715.3,286047019.7,N
1512031735.1,286047020.7,N
1512031736.0,286047020.7,N
1512031755.8,286047025.1,N
1512031775.7,286047022.3,N
1512031795.5,286047025.9,N
1512031815.3,286047029.9,N
1512031835.1,286047029.2,N
1512031855.9,286047027.6,N
1512031875.7,286047029.6,N
1512031895.5,286047030.7,N
1512031915.4,286047032.2,N
1512031935.2,286047033.2,N
1512031955.0,286047030.9,N
1512031955.9,286047030.9,N
1512031975.8,286047027.2,N
1512031995.6,286047029.2,N
1512032015.4,286047029.9,N
1512032035.3,286047028.8,N
1512032055.1,286047027.4,N
1512032075.8,286047024.1,N
1512032095.7,286047027.9,Y
1512032115.5,286047009.2,P
1512032135.3,286047004.5,N
1512032155.2,286047007.6,N
1512032175.9,286047010.6,N
1512032195.7,286047011.5,N
1512032215.6,286047012.3,N
1512032235.4,286047008.6,N
1512032255.2,286047009.0,N
1512032275.1,286047013.6,N
1512032276.0,286047013.6,Y
1512032295.8,286047001.4,P
1512032315.6,286047002.9,N
1512032335.5,286047006.7,N
1512032355.3,286047008.3,N
1512032375.1,286047009.0,N
1512032395.9,286047008.5,N
